Regional Weather Roundup
Issued by NWS Mobile, AL

Home | Current Version | Previous Version | Text Only | Print | Product List | Glossary On
Versions: 1 2 3 4 5 6 7 8 9 10 11 12 13 14 15 16 17 18 19 20 21 22 23 24 25 26 27
000
ASUS44 KMOB 180912
RWRMOB
REGIONAL WEATHER ROUNDUP
NATIONAL WEATHER SERVICE MOBILE AL
400 AM CDT FRI AUG 18 2017

NOTE: "FAIR" INDICATES FEW OR NO CLOUDS BELOW 12,000 FEET WITH NO
      SIGNIFICANT WEATHER AND/OR OBSTRUCTIONS TO VISIBILITY.

  * THESE STATIONS ARE PART OF THE UNIVERSITY OF SOUTH ALABAMA
    MESONET AND ARE NOT UNDER NWS OR FAA QUALITY CONTROL.

ALZ061>064-181000-
COASTAL ALABAMA

CITY           SKY/WX    TMP DP  RH WIND       PRES   REMARKS
MOBILE REG APT CLEAR     78  76  93 SW3       30.02F
BROOKLEY FIELD CLEAR     81  79  94 W5        30.02S
USA CAMPUS*      N/A     75  73  94 CALM      30.01S
DOG RIVER*     NOT AVBL


CITY           SKY/WX    TMP DP  RH WIND       PRES   REMARKS
GULF SHORES    PTCLDY    82  80  94 NW9       30.00F

$$

ALZ051>060-181000-
INTERIOR SOUTHWEST AND SOUTH CENTRAL ALABAMA

CITY           SKY/WX    TMP DP  RH WIND       PRES   REMARKS
GREENVILLE     CLEAR     77  73  87 W3        30.00S
EVERGREEN      CLEAR     77  75  93 SW3       30.01S
ATMORE*        NOT AVBL
ANDALUSIA/OPP  CLEAR     81  76  84 W6        30.01S
ANDALUSIA*       N/A     75  75 100 W3        30.02S
FLORALA APT    NOT AVBL
FLORALA*         N/A     77  75  94 SW3       30.70S

$$

FLZ001>006-181000-
WESTERN FLORIDA PANHANDLE

CITY           SKY/WX    TMP DP  RH WIND       PRES   REMARKS
PENSACOLA      CLEAR     83  77  82 W6        30.00F
NAS PENSACOLA  CLEAR     82  78  88 W3        29.99F
MILTON         CLEAR     77  76  96 NW5       30.01S
WHTNG S FIELD  CLEAR     80  78  94 NW3       30.00F


CITY           SKY/WX    TMP DP  RH WIND       PRES   REMARKS
JAY*             N/A     77  77 100 SW5       30.01S
DUKE FIELD     CLOUDY    78  76  94 W3        30.00S
CRESTVIEW      CLEAR     78  76  93 CALM      30.02S
VALPARAISO     CLEAR     80  77  92 W6        29.99S
DESTIN         PTCLDY    85  77  77 VRB3      29.99S HX  95

$$

MSZ076-079-181000-
INTERIOR SOUTHEAST MISSISSIPPI

CITY           SKY/WX    TMP DP  RH WIND       PRES   REMARKS
LEAKESVILLE*     N/A     77  77 100 W2        30.03
AGRICOLA*        N/A     77  77 100 CALM      30.01

$$

MARINE OBSERVATIONS

STATION/POSITION TIME  TEMP    WIND        PRES    WAVE
                       AIR SEA DIR/SP/G            HT/PER
                 (UTC) (F)     (DEG/KT/KT) (MB)    (FT/S)
PASCAGOULA       0848   85     270/  6/  9 1016.2S
PETIT BOIS ISLND 0848   85     270/ 15/ 18 1017.0F
GRAND BAY        0730   85     250/  6     1017.0S
KATRINA CUT      0830   86     270/ 16     1016.3F
CEDAR POINT      0830   86     280/ 16     1016.3F
E DAUPHIN ISLAND 0800   85     260/  8/ 11 1015.9F
MIDDLE BAY LIGHT 0830   84     280/ 12     1016.3F
USCG MOBILE BAY  0848   81 86  270/  3/  5 1016.8S
STATE DOCKS      0836   82 86              1016.0S
MEAHER PARK      0830   83     260/  6     1016.6R
WEEKS BAY        0745   82                   N/A
FORT MORGAN      0848   86     280/ 17/ 19   N/A
12 S ORANGE BCH  0850   86 86  280/ 14/ 16 1015.4F   2/ 3
PENSACOLA BAY    0836   83 88              1016.0F
64 S DAUPHIN ISL 0850   86 87  260/ 10/ 12 1016.1F   1/ 2
67 S FORT MORGAN 0830   85     260/  8     1016.3S

$$

SELECTED LOCATIONS ACROSS THE REGION

CITY           SKY/WX    TMP DP  RH WIND       PRES   REMARKS
NEW ORLEANS    PTCLDY    78  77  96 W3        30.02S
GULFPORT       CLEAR     81  79  94 W5        30.00F
PASCAGOULA AP  CLEAR     77  75  93 CALM      30.01S
PASCAGOULA*      N/A     81  77  89 CALM        N/A
HATTIESBURG    CLEAR     77  76  96 CALM      30.02S
LAUREL         PTCLDY    74  73  97 CALM      30.03S
MERIDIAN       MOCLDY    77  74  90 CALM      30.01S
JACKSON        CLOUDY    76  75  97 CALM      30.01S
MONTGOMERY     CLEAR     78  72  81 SW3       29.99S
TROY           CLEAR     74  74 100 CALM      30.01S
ASHFORD*         N/A     75  75 100 W3        30.02S
DOTHAN         CLEAR     78  77  96 W8        30.04S
PANAMA CITY    CLEAR     79  77  94 CALM      29.99S

$$





USA.gov is the U.S. government's official web portal to all federal, state and local government web resources and services.